Location: Arpaise
(41.0333°N, 14.7333°E)
Time: 08:04:49
(UTC+00:00)

Cosmos-2242 - Pass Details

Date: 05 July 2020
Orbit: 592 x 616 km, 82.5° (Epoch: 05 August)

Event Time Altitude Azimuth Distance (km) Brightness Sun altitude
Rises 20:50:19 0° 342° (NNW) 2,869 7.9 -19.0°
Reaches altitude 10° 20:52:41 10° 334° (NNW) 1,965 6.9 -19.2°
Maximum altitude 20:56:36 34° 269° (W) 1,005 4.4 -19.6°
Enters shadow 20:59:05 19° 216° (SW) 1,464 4.7 -19.8°
